Regional Weather Roundup
Issued by NWS

Home | Current Version | Previous Version | Text Only | Print | Product List | Glossary Off
Versions: 1 2 3 4 5 6 7 8 9 10 11 12 13 14 15 16 17 18 19 20 21 22 23 24 25 26 27 28 29 30 31 32 33 34 35 36 37 38 39 40 41 42 43 44 45 46 47 48 49 50

616
ASUS43 KIND 290509
RWRIN

WEATHER ROUNDUP FOR INDIANA
NATIONAL WEATHER SERVICE INDIANAPOLIS IN
100 AM EDT SAT APR 29 2017

NOTE: "FAIR" INDICATES FEW OR NO CLOUDS BELOW 12,000 FEET WITH NO
SIGNIFICANT WEATHER AND/OR OBSTRUCTIONS TO VISIBILITY.

* - STATION DOES NOT REPORT WEATHER SUCH AS PRECIPITATION OR FOG.

+ - STATION NOT QUALITY CONTROLLED BY THE NATIONAL WEATHER SERVICE.
    USE DATA WITH CAUTION...ESPECIALLY DEWPOINT AND RELATIVE
    HUMIDITY OBSERVATIONS.

INZ001>003-010>013-019-020-290600-
NORTHWEST INDIANA

CITY           SKY/WX    TMP DP  RH WIND       PRES   REMARKS
GARY /AIRPORT/ CLOUDY    48  41  75 N9        30.02R
KNOX *+        CLOUDY    52  37  58 N5        29.96S
LA PORTE +     CLOUDY    54  49  85 N6        29.99R
MICHIGAN CITY+ CLOUDY    48  46  93 N5        30.00R
MONTICELLO +   DRIZZLE   53  52  95 E3        29.92S
RENSSELAER +   CLOUDY    54  50  87 N7        29.94S
VALPARAISO     CLOUDY    55  51  86 N9        29.98R

$$

LMZ046-743>745-290600-
SOUTHERN LAKE MICHIGAN

STATION/POSITION TIME  TEMP    WIND        PRES    WAVE
                       AIR SEA DIR/SP/G            HT
                 (UTC) (F)     (DEG/KT/KT) (MB)    (FT)
BURNS HARBOR     0440   46      40/ 11/ 13 1015.9R
MICHIGAN CITY    0440   46      30/ 13/ 15   N/A
5NW MICH CITY    0500   45 47                N/A     2

$$

INZ004-005-014>016-021>024-290600-
NORTH CENTRAL INDIANA

CITY           SKY/WX    TMP DP  RH WIND       PRES   REMARKS
GOSHEN         CLOUDY    54  48  80 E6        29.94F
LOGANSPORT +   CLOUDY    52  52 100 NE5       29.94R FOG
PERU/GRISSOM   CLOUDY    54  54 100 NE6       29.93R FOG
ROCHESTER +    CLOUDY    55  52  88 CALM      29.94F
SOUTH BEND     CLOUDY    53  48  83 N8        29.98R
WARSAW +       LGT RAIN  52  50  93 E3        29.94F

$$

INZ006>009-017-018-025>027-290600-
NORTHEAST INDIANA

CITY           SKY/WX    TMP DP  RH WIND       PRES   REMARKS
ANGOLA *+      CLOUDY    54  43  66 CALM      29.97F
AUBURN +       CLOUDY    52  50  93 NE5       29.96F
FORT WAYNE     CLOUDY    54  51  90 N9        29.94F
HUNTINGTON +   CLOUDY    52  51  95 NE5       29.93F FOG
KENDALLVILLE + LGT RAIN  53  50  92 CALM      29.97F

$$

INZ028-029-035-036-043>045-051>053-290600-
WEST CENTRAL INDIANA

CITY           SKY/WX    TMP DP  RH WIND       PRES   REMARKS
CRAWFORDSVL +  CLOUDY    53  53 100 NE3       29.91R FOG
GREENCASTLE +  CLOUDY    55  54  94 CALM      29.91R FOG
LAFAYETTE      CLOUDY    54  54 100 NE5       29.91S FOG
TERRE HAUTE    CLOUDY    57  55  93 E3        29.89R FOG

$$

INZ030>032-037>040-046>048-054>057-064-065-290600-
CENTRAL INDIANA

CITY           SKY/WX    TMP DP  RH WIND       PRES   REMARKS
CP ATTERBURY + CLOUDY    59  55  88 E3        29.87F
FISHERS *+     CLOUDY    55  55 100 N3        29.90F
FRANKFORT +    CLOUDY    57  56  95 NE6       29.93R FOG
INDIANAPOLIS   CLOUDY    57  56  96 SE7       29.89F THUNDER
-EAGLE CREEK   CLOUDY    57  55  93 CALM      29.88F THUNDER
KOKOMO +       CLOUDY    54  53  97 N7        29.95R FOG
MARION +       CLOUDY    54  54 100 NE7       29.92  FOG
MT COMFORT *+  CLOUDY    57  55  94 SE6       29.89S
SHELBYVILLE    LGT RAIN  61  57  87 E6        29.90S
ZIONSVILLE +   RAIN      54  53  98 N5        29.91R

$$

INZ033-034-041-042-049-050-058-059-290600-
EAST CENTRAL INDIANA

CITY           SKY/WX    TMP DP  RH WIND       PRES   REMARKS
MUNCIE         CLOUDY    58  55  90 SE6       29.90S
RICHMOND +     CLOUDY    55  55 100 SE13      29.93S FOG

$$

INZ060-061-067>069-081>083-085>088-290600-
SOUTHWEST INDIANA

CITY           SKY/WX    TMP DP  RH WIND       PRES   REMARKS
EVANSVILLE     TSTM      70  68  93 W14G22    29.93R FOG
WASHINGTON +   CLOUDY    59  58  94 N6        29.88R FOG

$$

INZ062-063-066-070>080-084-089>092-290600-
SOUTH CENTRAL AND SOUTHEAST INDIANA

CITY           SKY/WX    TMP DP  RH WIND       PRES   REMARKS
BEDFORD +      CLOUDY    64  61  88 SE6       29.91R THUNDER
BLOOMINGTON    LGT RAIN  59  57  93 NW3       29.91R FOG
MADISON *+     CLOUDY    66  64  94 W5        29.93R
NORTH VERNON + LGT RAIN  61  59  94 N5        29.90R
SEYMOUR +      TSTM      63  63 100 CALM      29.88S

$$





USA.gov is the U.S. government's official web portal to all federal, state and local government web resources and services.